Orbital Elements at Epoch 2459000.5 (2020-May-31.0) TDB
Reference: JPL 26 (heliocentric ecliptic J2000)
Element | Value | Uncertainty (1-sigma) | Units |
e | .2102127475539798 | 3.4495e-08 | |
a | 2.325924727376835 | 8.6897e-09 | au |
q | 1.836985699831209 | 7.9417e-08 | au |
i | 8.856491791773973 | 3.7829e-06 | deg |
node | 232.8018548073118 | 1.9728e-05 | deg |
peri | 7.179566717296047 | 2.1815e-05 | deg |
M | 3.615311941050093 | 7.3382e-06 | deg |
tp | 2458987.488265730054 (2020-May-17.98826573) | 2.6441e-05 | TDB |
period | 1295.662563441164 3.55 | 7.2609e-06 1.988e-08 | d yr |
n | .2778501209789315 | 1.5571e-09 | deg/d |
Q | 2.81486375492246 | 1.0516e-08 | au |
|
| | Orbit Determination Parameters
Additional Information
|